Location: Grand Lay
(47.3253°N, 0.9468°E)
Time: 18:23:18
(UTC+00:00)

SL-8 Rocket - Pass Details

Date: 18 January 2026
Orbit: 955 x 990 km, 82.9° (Epoch: 15 February)

Event Time Altitude Azimuth Distance (km) Brightness Sun altitude
Rises 06:40:59 0° 197° (SSW) 3,687 7.1 -9.4°
Reaches altitude 10° 06:43:32 10° 201° (SSW) 2,740 6.4 -9.0°
Maximum altitude 06:49:46 63° 282° (WNW) 1,096 4.0 -8.0°
Drops below altitude 10° 06:56:00 10° 3° (N) 2,739 6.2 -7.0°
Sets 06:58:33 0° 7° (N) 3,686 6.9 -6.6°
